Location: Ko?midry
(50.6612°N, 18.5658°E)
Time: 05:17:46
(UTC+00:00)

Daily predictions for brighter satellites

Satellite Brightness Start Highest point End
(mag) Time Altitude Azimuth Time Altitude Azimuth Time Altitude Azimuth
Meteor 2-19 Rocket 4.4 00:03:04 10° N 00:09:17 89° E 00:11:31 43° S
Okean 1 Rocket 3.2 00:09:30 56° W 00:09:37 56° WNW 00:13:57 10° N
SJ 16-02 1.3 00:09:53 70° W 00:10:09 72° WNW 00:14:35 10° NNE
SL-16 R/B 2.8 00:08:36 10° NW 00:13:48 38° WSW 00:13:48 38° WSW
Cosmos 2263 Rocket 3.1 00:14:58 31° SE 00:16:36 37° ESE 00:21:41 10° NE
SL-14 R/B 3.4 00:13:37 10° NNW 00:17:08 64° NW 00:17:08 64° NW
Cosmos 724 4.2 00:12:39 10° NW 00:18:38 69° SW 00:20:59 38° SSE
NOSS 2-3 (D) 4.3 00:21:05 40° SE 00:21:29 41° ESE 00:26:11 10° NE
MOZ.5/SAFIR/RUBIN 5/SL-8 3.7 00:22:13 60° SW 00:22:45 65° WSW 00:27:28 10° NNW
SL-19 R/B 4.2 00:19:18 10° NNE 00:25:09 81° WNW 00:26:52 47° SSW
Cosmos 1937 Rocket 3.6 00:27:08 48° S 00:28:34 73° ESE 00:33:52 10° NNE
CZ-4C R/B 3.0 00:29:47 83° NNW 00:29:47 83° NNW 00:33:22 10° NNW
Okean 1-7 Rocket 3.5 00:26:09 10° NNW 00:30:36 79° W 00:31:14 64° SSW
ADEOS II 3.4 00:26:02 10° NNE 00:30:45 32° E 00:33:35 20° SE
Cosmos 990 Rocket 3.9 00:29:47 51° SW 00:31:04 78° WNW 00:36:16 10° NNE
COBE Rocket 4.2 00:29:03 29° SE 00:31:16 58° ENE 00:35:51 10° N
Cosmos 2297 Rocket 3.4 00:28:55 22° W 00:31:40 33° NW 00:36:48 10° NNE
Cosmos 1626 Rocket 4.0 00:30:00 10° N 00:34:16 56° ENE 00:35:59 33° SE
CZ-4B R/B 4.3 00:30:21 10° NNE 00:34:50 40° E 00:36:44 28° SE
Cosmos 2266 Rocket 3.9 00:29:10 10° N 00:35:32 84° W 00:38:25 35° S
Cosmos 1455 Rocket 3.0 00:35:30 59° S 00:36:20 87° E 00:40:50 10° N
ATLAS CENTAUR R/B 3.1 00:37:35 19° SE 00:38:07 20° ESE 00:41:01 10° ENE
USA 229 DEB 3.6 00:36:45 39° SW 00:39:29 83° SE 00:46:27 10° NE
USA 229 3.6 00:36:53 39° SW 00:39:35 83° SE 00:46:33 10° NE
UNK 3.7 00:39:00 53° SSW 00:39:50 64° WSW 00:44:30 10° NNW
Cosmos 1726 3.1 00:39:49 33° ESE 00:40:35 38° E 00:44:00 10° NNE
Meteor 1-21 Rocket 4.5 00:39:44 10° N 00:45:17 66° ENE 00:49:17 19° SSE
GEOS 3 Rocket 4.0 00:40:05 10° NE 00:45:25 56° SE 00:47:19 37° S
Cosmos 1898 Rocket 3.6 00:43:57 43° SW 00:45:33 66° WNW 00:50:45 10° NNE
Cosmos 1932 4.4 00:40:52 10° NW 00:47:25 82° SW 00:53:47 10° SSE
Cosmos 1892 Rocket 4.1 00:43:26 10° NNW 00:47:37 41° W 00:47:51 41° W
Meteor 1-24 Rocket 4.1 00:43:10 10° NNW 00:48:10 40° W 00:49:06 37° WSW
Meteor 1-29 4.5 00:46:14 10° N 00:49:04 25° WNW 00:49:04 25° WNW
NOSS 2-3 (C) 3.7 00:48:08 49° S 00:49:12 69° SE 00:54:24 10° NE
NOSS 3-1 (A) 3.3 00:48:36 40° SSW 00:50:47 75° SE 00:57:19 10° NE
IRAS Rocket 4.4 00:49:56 39° SSW 00:51:37 53° WSW 00:57:08 10° NNW
ARIANE 5 R/B 4.2 00:47:13 10° NE 00:51:40 27° E 00:55:51 11° SSE
Cosmos 1603 3.7 00:48:56 10° NW 00:54:36 61° WSW 00:57:17 31° S
SL-19 R/B 4.5 00:51:42 22° SSE 00:56:05 79° WSW 01:02:08 10° NNW
Cosmos 1461 4.1 00:55:29 26° W 00:57:22 38° NW 01:01:45 10° NNE
CZ-2D R/B 2.3 01:00:09 10° N 01:05:36 65° WNW 01:08:00 34° SW
MINOTAUR IV R/B 4.5 01:01:11 10° NNW 01:05:42 87° WSW 01:08:58 18° SSE
Cosmos 1340 Rocket 3.0 01:07:07 46° WSW 01:07:52 54° WNW 01:11:45 10° N
Cosmos 1758 3.4 01:08:43 46° SW 01:09:35 59° WNW 01:13:33 10° N
SL-16 R/B 3.0 01:09:25 30° SW 01:11:42 41° W 01:17:35 10° NNW
H-2A R/B 4.4 01:08:48 10° ESE 01:12:03 23° ENE 01:15:20 10° N
Nadezhda 2 Rocket 4.4 01:06:39 10° N 01:12:54 87° E 01:18:09 15° S
Cosmos 1943 3.3 01:07:41 10° NW 01:13:07 52° WSW 01:16:09 25° S
Timation 1 Rocket 4.5 01:10:12 30° SW 01:13:10 65° NW 01:19:07 10° NNE
Cosmos 1703 3.8 01:10:30 10° N 01:14:27 58° ENE 01:17:24 17° SSE
Cosmos 1825 Rocket 4.5 01:11:24 10° N 01:15:37 46° ENE 01:19:47 10° SSE
Cosmos 1626 4.3 01:13:49 10° NW 01:15:17 14° WNW 01:15:17 14° WNW
Cosmos 1125 Rocket 4.4 01:13:42 18° SSE 01:17:10 42° ESE 01:22:07 10° NE
IRS-1D 3.5 01:17:34 10° NNE 01:22:43 88° WNW 01:25:39 27° SSW
Cosmos 2227 Rocket 4.1 01:18:33 10° W 01:22:49 21° NW 01:27:06 10° NNE
Cosmos 1544 Rocket 4.1 01:22:37 33° WSW 01:24:07 46° WNW 01:28:26 10° N
NPP 3.9 01:19:07 10° N 01:24:23 54° WNW 01:27:04 28° SW
Cosmos 1470 3.7 01:24:19 30° W 01:25:13 33° WNW 01:28:54 10° N
Cosmos 1953 2.3 01:23:54 36° SSW 01:25:29 77° WNW 01:29:34 10° N
Cosmos 1328 4.0 01:24:05 10° N 01:28:06 70° ENE 01:31:32 14° SSE
AQUA 4.2 01:27:34 10° N 01:32:10 50° WNW 01:34:26 27° SW
CENTAUR R/B 4.3 01:29:12 10° NW 01:36:22 44° NNE 01:44:27 10° E
Resurs 1-4 Rocket 3.0 01:34:05 10° N 01:38:51 36° WNW 01:41:36 21° WSW
Atlas Centaur 2 4.3 01:38:02 11° S 01:39:07 12° SSE 01:41:17 10° SSE
Meteor 2-16 Rocket 4.4 01:34:13 10° NNW 01:40:22 74° W 01:46:29 10° S
Exosat Rocket 4.4 01:36:53 22° SW 01:41:54 58° WNW 01:47:34 10° NNE
Cosmos 1602 Rocket 4.0 01:38:28 10° NNW 01:42:34 41° W 01:44:25 26° SW
Meteor 2-21 Rocket 4.5 01:37:10 10° NNW 01:43:07 60° W 01:48:18 14° S
Cosmos 1606 Rocket 4.1 01:42:16 13° S 01:46:11 59° E 01:50:35 10° NNE
USA 267 3.5 01:40:36 10° ESE 01:47:07 74° NNE 01:53:39 10° WNW
NOSS 2-3 (E) 4.3 01:44:49 21° WSW 01:47:41 52° NW 01:53:01 10° NE
IDEFIX/ARIANE 42P 3.2 01:42:42 10° NNE 01:47:49 53° E 01:52:54 10° S
SJ 16-02 3.7 01:47:28 10° WNW 01:49:35 13° NW 01:51:42 10° NNW
NOSS 3-1 (C) 4.3 01:48:09 14° W 01:52:57 44° NNW 01:59:30 10° NE
Cosmos 1048 Rocket 4.3 01:51:23 10° NW 01:56:15 43° WSW 02:01:08 10° S
IRS-P3 4.2 01:52:19 10° NNE 01:57:40 71° WNW 02:01:51 17° SSW
Cosmos 1908 3.2 01:56:15 21° SSW 01:58:45 67° WNW 02:02:40 10° N
Cosmos 2263 Rocket 2.8 01:56:40 18° WSW 02:00:27 45° NW 02:05:49 10° NNE
Cosmos 1726 Rocket 3.9 01:56:29 10° S 02:00:54 67° E 02:05:20 10° NNE
Cosmos 1386 Rocket 4.4 01:54:52 10° N 02:00:56 87° E 02:06:58 10° S
Cosmos 2298 Rocket 4.3 01:57:57 20° SW 02:01:37 59° WNW 02:06:55 10° NNE
Cosmos 2228 3.1 01:59:31 13° S 02:03:24 88° E 02:07:50 10° N
Meteor 1-16 Rocket 4.3 02:01:57 17° SSW 02:06:09 59° WNW 02:11:45 10° N
Meteor 1-28 Rocket 3.8 02:06:34 17° SSW 02:09:05 37° W 02:12:41 10° NNW
SL-08 R/B 3.8 02:05:27 11° SSW 02:09:55 42° W 02:14:38 10° NNW
ADEOS II 2.6 02:05:37 10° N 02:10:35 44° WNW 02:14:31 16° SW
Spot 4 Rocket 4.1 02:07:18 10° NNE 02:12:31 85° ESE 02:17:41 10° SSW
CZ-2C R/B 3.3 02:08:59 10° NNE 02:12:46 57° E 02:16:28 10° S
CZ-4B R/B 4.4 02:09:17 10° N 02:13:27 31° WNW 02:16:40 15° WSW
Cosmos 1356 Rocket 3.4 02:10:31 10° S 02:14:36 84° ESE 02:18:43 10° NNE
Cosmos 1726 3.8 02:14:19 15° W 02:15:57 19° WNW 02:18:39 10° NNW
Cosmos 2285 Rocket 4.2 02:10:59 15° SW 02:16:09 61° WNW 02:22:25 10° NNE
ATLAS CENTAUR R/B 1.4 02:13:46 18° WSW 02:16:42 61° NW 02:20:32 10° NE
Cosmos 1269 Rocket 4.0 02:12:57 10° NNW 02:18:15 71° WSW 02:23:31 10° SSE
Cosmos 1300 2.9 02:15:13 10° S 02:19:00 71° E 02:22:50 10° NNE
NOSS 3-2 (A) 4.3 02:13:59 10° NW 02:21:16 75° NE 02:29:36 10° SE
Cosmos 1553 Rocket 4.0 02:15:28 11° SSW 02:21:21 63° WNW 02:27:29 10° N
NOSS 2-2 (C) 4.3 02:18:19 10° SSW 02:21:34 37° ESE 02:25:15 10° NE
ERS-2 2.2 02:19:12 10° SSE 02:22:50 82° ENE 02:26:31 10° NNW
Cosmos 1844 Rocket 2.8 02:17:42 10° SSW 02:23:14 77° ESE 02:28:49 10° NNE
GEOS 3 Rocket 4.5 02:18:15 10° NE 02:23:22 44° NW 02:28:25 10° WSW
Meteor 1-11 4.4 02:19:19 10° NNW 02:24:54 53° W 02:30:23 10° S
OPS 6432 4.4 02:21:53 10° NW 02:24:56 57° SW 02:28:43 10° SSE
Cosmos 1833 Rocket 4.2 02:20:23 10° NNW 02:25:44 41° NE 02:31:03 10° ESE
CZ-4C R/B 2.8 02:23:20 10° S 02:26:37 68° WSW 02:30:04 10° NNW
NOSS 8 (H) 4.1 02:24:24 15° SW 02:26:48 79° SE 02:29:52 10° NE
Cosmos 1745 Rocket 4.1 02:23:40 10° NNW 02:29:49 58° W 02:35:51 10° S
ARIANE 5 R/B 2.9 02:25:57 10° N 02:31:02 52° WNW 02:36:06 10° SW
CSL-04 DEB 4.5 02:27:15 10° S 02:31:06 53° WSW 02:35:01 10° NNW
Cosmos 2084 4.0 02:28:47 13° WSW 02:32:39 51° NW 02:37:02 10° NE
Lacrosse 5 rocket 4.1 02:32:17 10° SSE 02:34:36 14° ESE 02:36:55 10° E
SeaSat 1 4.1 02:30:34 10° NE 02:34:56 31° ESE 02:39:17 10° S
Meteor 2-15 4.4 02:33:37 10° SSW 02:39:39 76° W 02:45:46 10° N
Cosmos 1867 3.6 02:36:02 10° NW 02:41:33 87° SW 02:47:00 10° SE
CZ-2D R/B 4.2 02:41:52 10° NNW 02:44:41 14° NW 02:47:29 10° W
Cosmos 2058 Rocket 3.1 02:42:58 10° SSW 02:47:24 68° WNW 02:51:50 10° N
H-2A R/B 2.3 02:43:56 10° S 02:47:50 43° W 02:51:46 10° NNW
CZ-2C R/B 2.8 02:47:09 10° NNE 02:51:45 63° ESE 02:56:23 10° S
Cosmos 2058 3.2 02:48:35 10° N 02:52:48 76° E 02:56:59 10° SSE
S3M 4.3 02:47:05 10° SSW 02:53:18 52° WNW 02:59:32 10° N
USA 215 3.4 02:49:41 10° ENE 02:56:17 78° SE 03:02:50 10° SW
Landsat 5 4.0 02:53:04 10° SSW 02:56:50 38° W 03:00:46 10° NNW
Cosmos 1408 3.3 02:53:22 10° N 02:57:04 60° ENE 03:00:43 10° SSE
In-Cosmos 22 Rocket 4.3 02:51:22 10° NNW 02:57:13 74° W 03:02:58 10° S
ATLAS 3B R/B 4.1 02:51:14 10° NW 02:57:38 42° NNE 03:04:12 10° E
Cosmos 1125 Rocket 4.4 02:54:31 10° WSW 02:59:20 36° NW 03:04:13 10° NNE
